K5WRW-WX Weather Reports


time (UTC)temp
C
wind
direction
speed
KPH
gust
KPH
rain 1hr
cm
rain 24hr
cm
rain mn
cm
humidity
%
barometer
mb
20260906220915 38 0 8.0 12.9 0.00 0.00 0.00 39 1009.9
20260906215956 37 180 9.7 12.9 0.00 0.00 0.00 40 1009.8
20260906214915 37 180 8.0 9.7 0.00 0.00 0.00 39 1009.8
20260906213915 37 180 11.3 16.1 0.00 0.00 0.00 39 1009.9
20260906212916 37 135 4.8 9.7 0.00 0.00 0.00 41 1010.0
20260906211915 37 0 9.7 14.5 0.00 0.00 0.00 41 1010.1
20260906210915 37 0 9.7 14.5 0.00 0.00 0.00 41 1010.2
20260906205915 37 0 4.8 8.0 0.00 0.00 0.00 42 1010.5
20260906204915 37 0 8.0 9.7 0.00 0.00 0.00 41 1010.6
20260906203915 37 180 11.3 12.9 0.00 0.00 0.00 40 1010.8
20260906202915 37 0 11.3 17.7 0.00 0.00 0.00 42 1010.9
20260906201915 37 0 9.7 17.7 0.00 0.00 0.00 43 1011.0
20260906200915 37 0 8.0 9.7 0.00 0.00 0.00 43 1011.2
20260906195915 37 113 6.4 12.9 0.00 0.00 0.00 42 1011.3
20260906194915 37 0 8.0 12.9 0.00 0.00 0.00 43 1011.5
20260906193938 36 0 9.7 14.5 0.00 0.00 0.00 45 1011.6
20260906192915 36 0 14.5 20.9 0.00 0.00 0.00 44 1011.7
20260906191917 37 68 6.4 11.3 0.00 0.00 0.00 44 1011.8
20260906190915 37 0 12.9 20.9 0.00 0.00 0.00 44 1012.0
20260906185938 36 113 4.8 9.7 0.00 0.00 0.00 45 1012.1
20260906184917 36 0 11.3 17.7 0.00 0.00 0.00 46 1012.2
20260906183917 36 113 6.4 9.7 0.00 0.00 0.00 44 1012.3
20260906182917 36 0 11.3 12.9 0.00 0.00 0.00 46 1012.4
20260906181917 36 113 4.8 8.0 0.00 0.00 0.00 48 1012.6
20260906180917 36 0 12.9 17.7 0.00 0.00 0.00 48 1012.9
20260906175958 36 0 14.5 17.7 0.00 0.00 0.00 47 1013.0
20260906174957 35 158 6.4 9.7 0.00 0.00 0.00 50 1013.1
20260906173937 35 0 11.3 14.5 0.00 0.00 0.00 50 1013.2
20260906172917 35 0 11.3 16.1 0.00 0.00 0.00 50 1013.3
20260906171917 35 0 11.3 16.1 0.00 0.00 0.00 50 1013.4
20260906170917 35 0 14.5 19.3 0.00 0.00 0.00 49 1013.4
20260906165917 35 0 8.0 12.9 0.00 0.00 0.00 49 1013.5
20260906164917 35 0 12.9 17.7 0.00 0.00 0.00 49 1013.5
20260906163917 35 0 9.7 14.5 0.00 0.00 0.00 51 1013.6
20260906162917 35 135 3.2 3.2 0.00 0.00 0.00 50 1013.7
20260906161917 35 0 8.0 12.9 0.00 0.00 0.00 53 1013.8
20260906160916 33 90 3.2 8.0 0.00 0.00 0.00 53 1013.7
20260906155916 33 90 3.2 6.4 0.00 0.00 0.00 55 1013.6
20260906154917 33 0 4.8 11.3 0.00 0.00 0.00 57 1013.6
20260906153917 32 45 4.8 8.0 0.00 0.00 0.00 60 1013.6
20260906152917 32 90 8.0 8.0 0.00 0.00 0.00 60 1013.5
20260906151917 32 0.0 1.6 0.00 0.00 0.00 62 1013.5
20260906150917 32 68 1.6 4.8 0.00 0.00 0.00 63 1013.6
20260906145917 31 90 4.8 8.0 0.00 0.00 0.00 65 1013.5
20260906144916 31 90 1.6 3.2 0.00 0.00 0.00 67 1013.6
20260906143916 31 113 3.2 6.4 0.00 0.00 0.00 69 1013.6
20260906142916 30 0.0 0.0 0.00 0.00 0.00 72 1013.6
20260906141917 29 0.0 0.0 0.00 0.00 0.00 76 1013.5
20260906140916 28 0.0 0.0 0.00 0.00 0.00 77 1013.5
20260906135916 28 0.0 0.0 0.00 0.00 0.00 79 1013.6
20260906134916 27 0 1.6 4.8 0.00 0.00 0.00 80 1013.6
20260906133916 27 180 6.4 8.0 0.00 0.00 0.00 81 1013.7
20260906132916 26 0.0 1.6 0.00 0.00 0.00 82 1013.7
20260906131916 26 158 3.2 4.8 0.00 0.00 0.00 82 1013.7
20260906130916 26 0 1.6 3.2 0.00 0.00 0.00 83 1013.6
20260906125916 26 0.0 0.0 0.00 0.00 0.00 83 1013.5
20260906124916 25 0.0 0.0 0.00 0.00 0.00 84 1013.4
20260906123916 25 0.0 0.0 0.00 0.00 0.00 84 1013.3
20260906122916 25 0.0 1.6 0.00 0.00 0.00 84 1013.2
20260906121916 25 0 1.6 3.2 0.00 0.00 0.00 84 1013.1
20260906120916 25 158 1.6 3.2 0.00 0.00 0.00 84 1013.0
20260906115916 25 0 1.6 3.2 0.00 0.00 0.00 83 1012.9
20260906114916 25 0.0 0.0 0.00 0.00 0.00 83 1013.0
20260906113916 25 0.0 0.0 0.00 0.00 0.00 83 1012.8
20260906112916 25 0.0 0.0 0.00 0.00 0.00 83 1012.8
20260906111916 25 0.0 0.0 0.00 0.00 0.00 83 1012.6
20260906110916 25 0.0 0.0 0.00 0.00 0.00 82 1012.4
20260906105936 25 0.0 0.0 0.00 0.00 0.00 82 1012.3
20260906104916 26 180 3.2 8.0 0.00 0.00 0.00 81 1012.3
20260906103916 26 0.0 0.0 0.00 0.00 0.00 80 1012.1
20260906102916 26 0.0 0.0 0.00 0.00 0.00 80 1012.2
20260906101936 26 0.0 0.0 0.00 0.00 0.00 80 1012.1
20260906100916 26 0.0 0.0 0.00 0.00 0.00 79 1012.0
20260906095916 26 0.0 0.0 0.00 0.00 0.00 79 1012.0
20260906094916 26 180 3.2 3.2 0.00 0.00 0.00 78 1011.9
20260906093916 26 0.0 0.0 0.00 0.00 0.00 78 1011.8
20260906092916 26 0.0 0.0 0.00 0.00 0.00 78 1011.8
20260906091916 26 0.0 0.0 0.00 0.00 0.00 78 1011.7
20260906090936 26 203 1.6 3.2 0.00 0.00 0.00 77 1011.7
20260906085916 26 203 1.6 3.2 0.00 0.00 0.00 77 1011.5
20260906084916 27 180 1.6 3.2 0.00 0.00 0.00 77 1011.4
20260906083915 27 180 1.6 3.2 0.00 0.00 0.00 77 1011.4
20260906082915 27 203 4.8 9.7 0.00 0.00 0.00 76 1011.5
20260906081915 27 0.0 1.6 0.00 0.00 0.00 76 1011.4
20260906080915 27 203 4.8 8.0 0.00 0.00 0.00 76 1011.5
20260906075916 27 203 4.8 9.7 0.00 0.00 0.00 76 1011.4
20260906074915 27 180 6.4 9.7 0.00 0.00 0.00 75 1011.4
20260906073915 27 203 8.0 11.3 0.00 0.00 0.00 74 1011.4
20260906072915 27 158 8.0 12.9 0.00 0.00 0.00 74 1011.7
20260906071915 27 180 8.0 12.9 0.00 0.00 0.00 73 1011.5
20260906070935 27 203 6.4 9.7 0.00 0.00 0.00 73 1011.6
20260906065915 28 203 3.2 6.4 0.00 0.00 0.00 72 1011.4
20260906064915 28 203 6.4 9.7 0.00 0.00 0.00 72 1011.5
20260906063935 28 0 4.8 8.0 0.00 0.00 0.00 71 1011.6
20260906062915 28 0 6.4 8.0 0.00 0.00 0.00 70 1011.8
20260906061915 28 225 1.6 4.8 0.00 0.00 0.00 70 1011.7
20260906060915 28 225 3.2 6.4 0.00 0.00 0.00 70 1011.7
20260906055915 28 225 6.4 8.0 0.00 0.00 0.00 69 1011.6
20260906054915 28 203 4.8 8.0 0.00 0.00 0.00 69 1011.6
20260906053935 28 180 6.4 9.7 0.00 0.00 0.00 69 1011.7
20260906052915 28 180 6.4 9.7 0.00 0.00 0.00 68 1011.8
20260906051917 29 203 8.0 11.3 0.00 0.00 0.00 67 1011.8
20260906050917 29 180 9.7 12.9 0.00 0.00 0.00 67 1011.8
20260906045917 29 180 8.0 11.3 0.00 0.00 0.00 66 1011.6
20260906044917 29 225 6.4 11.3 0.00 0.00 0.00 66 1011.6
20260906043917 30 180 6.4 11.3 0.00 0.00 0.00 65 1011.8
20260906042916 30 180 6.4 12.9 0.00 0.00 0.00 65 1011.7
20260906041917 30 180 4.8 8.0 0.00 0.00 0.00 64 1011.6
20260906040917 30 203 9.7 14.5 0.00 0.00 0.00 64 1011.6
20260906035917 30 203 8.0 9.7 0.00 0.00 0.00 64 1011.6
20260906034917 30 0 8.0 9.7 0.00 0.00 0.00 63 1011.8
20260906033916 30 203 8.0 9.7 0.00 0.00 0.00 63 1011.7
20260906032917 30 180 6.4 11.3 0.00 0.00 0.00 63 1011.6
20260906031917 31 0 12.9 17.7 0.00 0.00 0.00 62 1011.8
20260906030917 31 0 6.4 11.3 0.00 0.00 0.00 62 1011.7
20260906025917 31 158 4.8 8.0 0.00 0.00 0.00 61 1011.4
20260906024916 31 180 8.0 12.9 0.00 0.00 0.00 61 1011.4
20260906023917 31 0 9.7 14.5 0.00 0.00 0.00 60 1011.4
20260906022916 32 0 11.3 14.5 0.00 0.00 0.00 58 1011.3
20260906021916 32 0 8.0 12.9 0.00 0.00 0.00 56 1010.9
20260906020916 32 0 8.0 14.5 0.00 0.00 0.00 54 1010.7
20260906015916 33 0 14.5 20.9 0.00 0.00 0.00 51 1010.6
20260906014916 34 0 9.7 12.9 0.00 0.00 0.00 48 1010.4
20260906013916 34 135 4.8 8.0 0.00 0.00 0.00 48 1010.3
20260906012917 34 135 3.2 3.2 0.00 0.00 0.00 47 1010.0
20260906011917 35 135 4.8 6.4 0.00 0.00 0.00 47 1010.1
20260906010916 35 0 1.6 3.2 0.00 0.00 0.00 46 1010.0
20260906005916 35 135 1.6 3.2 0.00 0.00 0.00 45 1010.0
20260906004916 35 0 3.2 4.8 0.00 0.00 0.00 44 1009.8
20260906003916 36 90 3.2 4.8 0.00 0.00 0.00 43 1009.9
20260906002916 36 90 1.6 3.2 0.00 0.00 0.00 42 1009.9
20260906001916 36 113 3.2 3.2 0.00 0.00 0.00 42 1009.9
20260906000916 36 135 4.8 6.4 0.00 0.00 0.00 41 1009.8
20260905235916 36 0 9.7 14.5 0.00 0.00 0.00 40 1009.7
20260905234916 36 0 11.3 16.1 0.00 0.00 0.00 41 1009.6
20260905233936 36 0 8.0 11.3 0.00 0.00 0.00 41 1009.5
20260905232956 36 0 11.3 16.1 0.00 0.00 0.00 41 1009.5
20260905231916 37 113 3.2 9.7 0.00 0.00 0.00 42 1009.6
20260905230916 37 158 1.6 3.2 0.00 0.00 0.00 42 1009.6
20260905225916 37 0 9.7 12.9 0.00 0.00 0.00 42 1009.6
20260905224916 37 180 8.0 11.3 0.00 0.00 0.00 42 1009.6
20260905223916 36 0 8.0 9.7 0.00 0.00 0.00 42 1009.6
20260905222916 37 0 11.3 16.1 0.00 0.00 0.00 41 1009.6
20260905221916 37 180 6.4 9.7 0.00 0.00 0.00 41 1009.7